CAPE
88 385 1228 1681 1662 1832 2001 1969 2159 2343 2033 2624 2380 2212 1929 2131 2061 2543 2440 2115 1919 2072 1908 1737 1344 1410 1637 1539 650 592 1409 1456 1575 1372 1598 1826 1783 1891 1777 1691 1918 1603 1990
44 437 1679 2063 2361 1994 2316 2490 2471 2254 2221 2166 2506 2114 2190 2010 1986 1993 2193 1876 1773 2072 1864 1889 1301 1629 1626 1460 1102 521 1128 1061 1473 1427 969 1342 1695 1783 2289 1697 2047 1938 2079
224 674 1640 2378 2453 2370 2250 2549 2290 2152 1838 2032 2252 2422 1868 1737 2011 1910 1800 1805 1859 1720 1597 1638 1575 1569 1569 1328 1288 602 940 1187 995 1117 1081 327 1303 1548 1773 2080 2143 2045 1978
200 1032 1443 2352 2406 1933 2395 2515 2323 1735 1921 2115 2497 2353 1956 2274 2248 1830 1904 2098 1888 1697 1572 1449 1460 1464 1375 1334 1402 1126 562 1017 1116 893 470 628 913 1516 1666 1857 1780 1930 1779
395 1145 1456 2282 2459 2324 2300 2334 2581 2289 1802 1947 2250 1857 1978 2501 1973 1828 1717 1774 1727 1685 1578 1555 1395 1303 1225 1149 1100 1156 978 646 991 1051 716 255 514 1440 1338 1510 1716 1749 1674
773 1199 2046 2218 2175 2412 2325 2309 1988 1898 1746 2182 2220 1900 2076 2161 1919 1832 1732 1765 1702 1640 1574 1513 1451 1364 1327 1254 1027 1053 1154 1109 1201 880 796 1073 953 1494 1896 1827 1734 1700 1977
925 1419 1702 2374 2335 2508 2233 2020 2095 1893 1829 2010 1975 1766 1886 1997 2076 1929 1782 1781 1745 1690 1640 1615 1605 1552 1553 1325 1061 1048 1291 1355 811 764 1102 1250 1530 2178 1820 1352 1262 1220 1771
920 1309 1557 1973 2504 2411 1788 1771 2208 1779 1722 2062 1958 1656 1730 1801 1962 2512 1803 1683 1677 1641 1510 1453 1495 1542 1639 1402 1187 1204 1263 1500 935 883 1173 1474 2263 2176 1787 1682 1465 1470 1677
785 1206 1476 1636 1526 1796 2345 1938 1948 1716 1803 1804 1665 1622 1606 1617 1687 1796 1883 2054 1711 1686 1603 1536 1479 1493 1612 1499 1216 1115 1134 1528 825 895 1298 1656 2509 2007 1812 1711 1774 1765 1697
881 1219 1400 1389 1292 1528 1578 1862 1828 1738 1827 1735 1694 1610 1539 1454 1389 1588 2003 2077 1768 1650 1578 1500 1506 1538 1632 1594 1498 1180 867 1576 1010 723 1128 1764 2481 2023 1931 1821 1850 1853 1778
738 1016 1080 1029 1105 1200 1210 1406 1656 1693 1737 1766 1715 1689 1610 1251 1235 1217 1493 1906 1547 1459 1487 1391 1480 1675 1749 1713 1728 1458 1210 713 968 713 1167 1988 2157 1725 1609 1691 1913 1849 1864
597 756 695 634 687 881 956 1240 1279 1288 1244 1218 1167 700 424 690 1053 1407 1574 2074 1572 1545 1822 1554 1361 1735 1400 774 1471 1875 1282 630 760 836 1272 2306 2123 1045 1535 1153 1729 1859 1825
348 287 289 623 743 640 824 941 1109 878 757 958 750 237 102 971 816 1097 874 727 94 407 644 848 432 681 779 845 921 1367 1418 775 435 960 1758 2377 2431 1615 1458 1115 697 1509 1750
110 40 67 520 607 500 385 562 875 760 700 501 457 181 122 423 404 731 738 367 348 357 714 1052 804 807 705 875 1166 995 1013 830 413 1014 2012 2577 2526 1759 1678 1660 1102 592 791
56 0 30 267 474 521 317 163 618 595 624 611 746 816 696 619 624 900 934 677 577 606 714 1143 1119 796 243 116 177 106 619 292 170 456 1422 2212 2340 2120 1758 1420 1544 1466 1180
87 0 121 204 530 388 825 554 181 885 483 1124 1378 1385 890 649 911 1006 1035 865 906 650 345 1384 1153 1027 705 633 148 42 208 141 134 275 624 1280 2109 2010 2169 1747 1424 1517 1584
70 53 138 212 809 702 732 839 1035 919 261 637 1289 1362 1190 802 1050 1253 1124 918 589 633 610 1338 1052 555 279 331 91 23 53 75 101 222 396 871 1480 2057 2170 2189 1946 1916 1584
116 246 276 271 754 1035 734 816 1018 726 821 461 1091 1042 1394 1439 1624 1119 861 952 907 1068 1314 949 1097 512 187 480 53 46 54 73 63 134 183 398 797 758 1932 2275 2112 2227 1543
200 294 329 275 463 1092 789 1039 721 777 821 803 1159 1025 1049 1276 1721 1194 603 465 752 1327 1318 1099 418 734 490 443 67 33 19 31 51 139 140 227 302 408 660 2117 2120 2114 1764
139 195 286 380 283 652 985 1134 656 475 704 857 727 1106 1379 1497 1802 1491 1011 512 988 969 1459 1291 232 75 115 43 31 49 30 39 42 74 138 210 207 189 384 851 966 1108 1643
117 326 79 581 579 355 1246 1019 976 449 536 706 517 1642 1565 1573 1747 1542 1032 998 1155 1104 797 1336 149 254 74 22 80 46 20 57 26 13 183 292 172 149 263 340 519 376 848
368 269 422 785 891 529 902 610 959 830 514 637 446 1356 1716 1773 1834 1804 1392 1407 1318 1088 937 1235 642 464 49 27 55 21 1 25 50 51 56 166 198 177 140 237 269 283 405
472 315 485 583 1217 771 912 855 811 888 792 767 504 319 1754 1533 1599 1981 1523 1488 1139 1383 1210 1113 716 789 1 29 46 5 27 38 33 39 42 59 38 19 130 425 297 370 195
531 577 442 778 1566 1087 1235 1056 881 712 579 992 470 427 1041 1698 1749 1638 1789 1451 1363 1369 1433 1207 909 400 0 0 1 134 38 134 11 1 21 3 1 2 14 34 346 201 352
383 798 681 756 1312 1368 1145 1058 1092 877 906 478 602 379 958 1008 1312 2238 1691 1625 1388 1635 1324 928 1707 1270 139 96 0 0 0 19 35 16 10 5 2 0 0 0 1 148 0
556 857 986 842 1127 1389 1306 1296 944 1168 823 682 249 310 797 1386 1546 1958 2222 1886 1952 1630 1394 1401 1582 789 1347 889 217 0 0 0 0 18 27 14 20 16 0 0 0 0 0
CIN
-3 -1 0 0 0 0 0 0 0 0 0 0 0 0 0 0 0 0 0 0 0 0 0 0 -1 0 0 -3 -38 -28 0 0 0 -2 -7 -9 -11 -3 -1 0 0 0 0
-22 -2 -1 0 0 0 0 0 0 0 0 0 0 0 0 0 0 0 0 0 0 0 0 0 -2 0 -1 -3 -2 -27 -1 -4 0 0 -11 -9 0 0 -1 -3 0 0 0
-6 -3 0 0 0 0 0 0 0 0 0 -1 0 0 0 0 0 0 0 0 0 0 0 0 0 -2 -3 -13 -3 -27 -17 -6 -1 -2 -1 -34 -5 -4 -1 0 0 0 0
-21 0 -2 0 0 0 0 0 0 0 -1 0 0 0 0 0 0 0 0 0 0 0 0 0 0 -2 -8 -16 -10 -19 -38 -9 -7 -32 -60 -34 -9 -4 -3 0 0 0 0
-7 -2 0 0 0 0 0 0 0 0 0 0 0 0 0 0 0 0 0 0 0 0 0 0 0 -2 -8 -16 -20 -22 -29 -22 -7 -16 -41 -32 -32 -1 -1 0 -1 0 0
-10 -10 0 0 0 0 0 0 0 0 0 0 0 0 0 0 0 0 0 0 0 0 0 0 -1 -7 -10 -15 -26 -29 -21 -22 -7 -17 -34 -33 -28 0 0 0 0 0 0
-28 -12 0 0 0 0 0 0 0 0 0 0 0 0 0 0 0 0 0 0 -1 -4 -4 -7 -10 -13 -9 -19 -30 -31 -20 -20 -63 -46 -66 -39 -12 0 0 0 0 0 0
-27 -14 0 0 0 0 0 0 0 0 0 0 0 0 -1 -2 0 0 -6 -8 -11 -9 -19 -22 -22 -17 -10 -19 -34 -35 -29 -9 -21 -51 -57 -31 -2 0 0 0 0 0 0
-25 -16 -1 0 -1 0 0 0 0 0 0 0 0 -1 -3 -6 -10 -8 -7 -4 -14 -17 -20 -19 -21 -20 -18 -21 -30 -39 -28 -9 -53 -70 -44 -33 -1 0 0 0 0 0 0
-22 -18 -1 -1 -2 -1 -1 0 0 0 0 -2 -9 -9 -6 -4 -13 -19 -14 -9 -9 -20 -27 -35 -24 -28 -28 -31 -38 -44 -37 -31 -15 -25 -48 -12 0 0 0 0 0 0 0
-19 -27 -15 -18 -17 -18 -28 -17 -4 -1 -4 -15 -27 -15 -15 -16 -18 -32 -44 -15 -15 -27 -40 -47 -41 -31 -27 -27 -31 -42 -41 -34 -83 -103 -67 -5 0 -1 0 0 0 0 0
-19 -27 -40 -47 -53 -44 -50 -38 -30 -47 -49 -53 -30 -38 -37 -27 -16 -41 -29 -12 -29 -35 -16 -31 -60 -27 -53 -76 -41 -33 -47 -44 -68 -106 -71 -2 0 -25 -1 -5 0 0 0
-25 -41 -54 -47 -48 -57 -65 -76 -69 -71 -79 -70 -36 -103 -120 -143 -30 -8 -57 -52 -43 -61 -102 -91 -168 -37 -92 -54 -47 -51 -59 -34 -14 -88 -22 -1 0 -1 0 -6 -29 0 0
-54 -92 -69 -42 -43 -57 -97 -92 -78 -73 -102 -49 -110 -137 -111 -276 -48 -32 -114 -33 -50 -16 -7 -74 -88 -59 -63 -90 -50 -19 -43 -38 -54 -107 -19 -1 0 -2 0 0 -4 -38 -20
-115 0 -99 -62 -45 -54 -23 -80 -64 -55 -72 -64 -60 -28 -42 -28 -22 -46 -130 -34 -18 -30 -35 -48 -50 -40 -32 -109 -105 -114 -43 -19 -133 -149 -73 -2 0 0 0 -1 0 0 -2
-80 0 -73 -75 -73 -75 -55 -102 -70 -51 -29 -56 -76 -73 -40 -179 -40 -58 -37 -74 -79 -75 -9 -28 -38 -36 -51 -30 -65 -53 -36 -47 -32 -153 -137 -56 -1 -1 0 0 -2 0 0
-88 -68 -88 -77 -69 -30 -35 -23 -34 -51 -25 -12 -55 -44 -24 -17 -14 -11 -40 -60 -24 -88 -18 -41 -34 -16 -24 -16 -82 -9 -31 -32 -38 -122 -134 -95 -42 -3 0 0 -2 0 0
-77 -95 -86 -55 -56 -77 -62 -53 -50 -47 -49 -34 -64 -54 -35 -40 -24 -18 -22 -37 -50 -60 -38 -43 -43 -70 -12 -47 -45 -14 -40 -35 -57 -98 -124 -127 -93 -92 -28 0 -1 -1 -5
-53 -90 -82 -77 -83 -63 -73 -77 -60 -52 -55 -47 -49 -66 -57 -49 -33 -25 -52 -32 -9 -23 -52 -45 -47 -65 -13 -66 -46 -59 -18 -20 -54 -69 -33 -27 -97 -117 -90 -15 -6 -2 0
-33 -73 -69 -100 -126 -81 -96 -62 -72 -65 -76 -36 -37 -66 -83 -77 -53 -53 -42 -22 -26 -55 -42 -43 -67 -35 -35 -32 -22 -50 -5 -15 -22 -31 -46 -83 -84 -82 -83 -67 -60 -46 -9
-106 -100 -149 -117 -155 -151 -59 -57 -57 -107 -85 -41 -45 -41 -76 -66 -43 -38 -36 -23 -12 -45 -19 -29 -80 -38 -36 -47 -29 -69 -10 -10 -30 -9 -43 -94 -29 -81 -100 -106 -92 -83 -38
-116 -127 -129 -100 -151 -157 -104 -114 -76 -77 -101 -57 -55 -52 -73 -53 -40 -33 -26 -19 -20 -11 -75 -46 -29 -29 -51 -54 -51 -8 -4 -20 -11 -9 -37 -42 -92 -122 -70 -33 -22 -31 -51
-138 -183 -169 -156 -136 -168 -130 -104 -85 -49 -39 -55 -68 -85 -28 -32 -33 -26 -22 -27 -18 -43 -14 -26 -25 -31 -12 -39 -47 -4 -29 -14 -38 -26 -13 -50 -44 -21 -62 -56 -60 -34 -61
-147 -170 -171 -148 -96 -135 -93 -99 -96 -123 -125 -75 -91 -82 -47 -32 -59 -58 -20 -53 -53 -46 -20 -27 -60 -54 0 0 -2 -72 -56 -47 -10 -6 -59 -11 -9 -10 -42 -69 -55 -39 -83
-154 -159 -193 -169 -109 -84 -116 -103 -104 -115 -84 -94 -87 -122 -79 -54 -36 -39 -24 -37 -47 -35 -16 -57 -25 -21 -111 -26 0 0 0 -57 -53 -15 -35 -20 -62 0 0 0 -16 -68 0
-175 -139 -157 -164 -130 -101 -98 -106 -120 -96 -100 -97 -149 -145 -128 -79 -79 -55 -12 -30 -37 -36 -47 -42 -15 -70 -30 -69 -104 0 0 0 0 -25 -48 -35 -1 -61 0 0 0 0 0
Wind_Speed
nan 9 3 4 8 6 7 6 6 7 8 9 8 7 8 7 7 5 6 5 4 3 2 3 3 3 4 4 5 3 3 5 7 10 14 17 18 16 9 5 10 8 8
nan 8 2 5 7 7 6 5 5 6 7 7 6 6 7 7 5 5 4 4 3 2 0 2 4 4 5 3 4 4 4 4 2 5 10 13 15 16 13 6 10 7 11
5 5 3 7 7 6 6 5 4 5 5 4 3 6 5 7 6 4 3 2 1 1 3 4 6 6 4 3 5 5 4 4 2 2 3 5 8 13 11 10 9 11 11
5 4 3 8 8 6 7 4 2 4 3 3 4 4 5 7 4 5 4 2 1 3 5 5 6 6 6 4 5 5 4 5 3 5 7 10 5 8 8 8 8 9 11
9 5 6 9 8 8 7 3 3 2 4 2 5 3 5 5 3 3 3 2 2 1 2 3 4 4 4 5 5 4 3 3 5 8 10 8 6 4 8 8 8 11 11
11 9 9 10 8 8 7 4 3 4 1 2 2 3 6 4 4 2 0 2 3 3 4 6 8 8 8 8 6 4 2 13 7 9 3 1 4 6 11 12 11 11 12
13 10 6 8 8 7 8 5 3 2 0 1 4 4 5 6 6 5 4 5 5 6 5 6 8 9 11 12 10 8 14 15 8 9 3 4 2 5 9 11 11 11 11
14 10 5 8 7 8 8 4 2 1 2 5 8 8 7 7 10 10 9 9 8 6 7 9 10 11 14 16 15 12 17 13 2 5 5 5 5 9 10 12 12 12 12
14 8 4 2 5 8 5 2 2 1 3 8 10 12 13 13 12 13 13 11 7 7 8 10 12 15 17 20 23 23 18 13 9 7 6 8 5 12 11 10 12 12 12
12 8 3 0 2 3 4 1 1 4 7 10 12 16 17 16 15 12 15 14 10 11 11 11 12 18 19 22 24 25 17 4 6 4 5 5 13 15 14 11 10 11 11
9 7 4 2 2 4 5 5 8 12 14 14 15 15 17 17 16 19 22 16 15 13 13 14 15 18 21 22 23 22 11 13 7 4 4 9 12 13 11 11 11 9 10
10 8 6 3 4 3 5 10 17 21 18 19 14 10 11 17 18 17 15 18 13 13 15 13 17 18 21 21 20 23 17 15 10 10 7 11 13 13 10 8 8 9 8
10 6 5 3 4 5 7 16 21 22 16 16 7 10 10 13 14 14 12 17 nan 10 14 12 15 15 19 22 19 16 20 17 14 12 12 11 12 11 10 9 9 8 9
9 nan nan 5 6 6 10 16 17 20 9 12 13 6 6 10 15 9 12 14 11 9 12 15 13 13 18 19 20 15 21 14 13 12 13 14 12 12 12 11 9 11 11
nan nan nan 5 4 5 9 17 15 15 12 9 11 8 8 11 19 15 13 9 11 8 11 11 12 11 9 6 8 6 16 13 14 13 12 14 12 15 15 14 14 15 16
nan nan 8 3 5 4 10 14 15 12 7 9 11 5 9 13 17 15 13 12 10 11 10 7 8 6 8 6 7 nan 11 13 11 10 11 11 14 12 16 17 18 17 17
nan nan 8 1 6 7 10 12 15 14 7 5 8 8 13 16 17 12 9 8 11 14 12 10 7 9 10 8 nan nan nan nan 8 8 9 9 11 15 18 18 18 19 20
4 11 5 2 6 10 10 12 13 12 10 5 7 8 10 11 10 10 6 10 11 13 14 11 8 10 11 12 nan nan nan nan nan 10 8 7 9 12 17 20 21 23 23
3 10 5 4 4 9 11 10 11 11 10 8 6 7 9 10 11 8 12 11 11 11 10 11 13 13 14 14 nan nan nan nan nan 8 7 9 9 9 10 18 20 19 20
10 7 6 5 5 6 10 12 11 11 10 9 5 7 7 8 9 6 8 9 7 7 8 12 14 nan 10 nan nan nan nan nan nan nan 6 10 10 10 11 13 11 13 18
10 8 nan 9 6 7 11 10 11 9 8 8 6 4 6 6 7 8 10 11 11 14 14 14 14 9 nan nan nan nan nan nan nan nan 3 7 10 14 15 15 15 15 17
9 8 10 11 8 8 10 10 11 8 6 5 6 2 3 5 7 6 9 9 11 10 14 14 13 11 nan nan nan nan nan nan nan nan nan 7 7 9 13 15 14 16 16
8 8 9 12 12 11 11 12 12 11 10 8 6 4 2 4 6 7 10 8 9 9 12 12 11 10 nan nan nan nan nan nan nan nan nan nan nan nan 11 13 17 20 17
7 8 9 13 14 11 10 8 5 8 6 6 3 3 1 4 6 8 9 10 11 10 11 10 8 8 nan nan nan 8 nan 13 nan nan nan nan nan nan nan nan 16 17 17
10 8 9 11 12 10 7 7 7 6 8 8 9 4 2 2 4 6 8 9 10 8 9 8 6 6 4 nan nan nan nan nan nan nan nan nan nan nan nan nan nan 15 nan
11 10 10 10 9 10 8 9 3 5 6 8 7 4 4 2 2 3 7 8 9 10 9 7 8 9 6 3 3 nan nan nan nan nan nan nan nan nan nan nan nan nan nan
Wind_Direction
nan 106 129 316 317 295 260 253 239 221 221 223 220 227 210 182 188 171 145 158 171 163 214 244 246 249 228 225 220 231 271 284 257 260 257 244 238 223 207 251 264 256 274
nan 85 41 308 304 299 264 262 236 224 231 229 229 238 216 196 189 175 150 155 145 125 311 313 322 311 271 256 262 290 299 332 260 247 256 251 241 215 215 261 265 266 267
18 79 325 318 303 302 289 271 248 248 248 249 243 235 217 203 192 188 170 160 341 15 330 333 348 339 322 305 281 293 317 332 327 230 250 167 197 225 243 271 271 272 281
347 57 355 315 309 311 299 292 302 282 270 248 259 232 202 191 205 204 188 250 271 305 323 343 349 343 335 337 319 300 319 320 356 183 107 117 176 233 259 270 281 296 299
349 347 344 321 318 321 301 330 277 282 263 248 242 220 190 186 186 210 201 213 256 316 8 16 25 24 19 12 7 347 224 188 57 59 87 96 131 256 274 284 299 306 310
316 321 322 326 325 318 316 311 320 293 293 230 209 178 178 166 165 144 38 31 25 47 59 60 54 46 32 20 38 23 145 146 94 106 98 119 108 292 284 284 295 300 314
312 318 322 322 323 316 307 329 329 287 178 99 103 135 132 145 128 107 102 93 84 70 65 60 59 49 36 30 51 87 123 139 138 91 72 105 109 299 301 302 301 304 300
308 310 315 319 318 311 315 322 314 288 109 115 109 116 126 107 115 121 101 79 75 74 64 55 53 50 41 46 58 101 120 132 86 88 33 47 321 323 307 298 300 304 302
303 298 297 307 326 319 310 314 271 139 125 119 117 117 108 109 105 106 102 87 77 73 76 68 65 60 51 53 81 104 120 112 80 59 40 53 357 325 321 312 308 303 308
296 303 318 168 135 157 160 347 105 94 110 107 106 108 109 109 102 83 80 85 76 74 71 67 70 76 72 66 70 88 104 140 97 69 77 61 328 308 306 311 313 317 314
311 319 319 5 96 145 158 124 88 94 101 106 105 101 121 108 92 80 75 66 65 64 64 66 70 76 75 74 74 81 66 87 43 46 41 346 344 332 318 299 305 318 325
327 327 335 18 98 140 138 124 117 108 123 113 120 132 105 110 96 72 69 67 68 76 92 79 88 85 79 70 67 73 78 78 87 56 50 9 351 358 349 327 315 327 315
329 338 358 48 91 113 159 125 127 123 128 119 95 78 101 104 108 101 81 94 nan 80 78 77 83 72 72 74 64 56 70 52 60 60 46 29 356 2 11 5 1 348 327
349 nan nan 43 91 162 148 129 123 123 119 124 119 90 135 126 86 100 90 65 112 80 73 65 65 66 64 68 59 57 45 45 53 53 46 33 15 9 11 5 0 3 1
nan nan nan 48 119 172 142 131 133 116 117 108 104 70 125 102 84 61 61 62 74 70 68 56 48 34 61 78 39 54 352 20 26 39 51 21 32 13 16 16 17 14 15
nan nan 349 48 152 176 148 142 128 112 106 76 75 44 14 75 70 54 51 44 42 46 58 64 47 45 58 43 71 nan 7 13 19 11 37 35 31 33 21 18 20 22 23
nan nan 339 63 171 183 171 161 146 146 129 103 54 37 33 41 44 51 38 48 59 76 57 55 30 44 39 49 nan nan nan nan 3 345 19 26 40 31 34 30 22 24 23
16 300 306 193 182 183 182 161 148 144 131 90 24 38 28 40 34 25 14 54 27 58 47 51 41 28 22 26 nan nan nan nan nan 345 10 5 39 43 39 33 31 29 23
292 290 281 230 200 191 184 172 154 145 141 117 51 45 39 37 35 34 23 358 10 33 30 30 45 34 38 50 nan nan nan nan nan 341 356 1 21 47 44 36 32 31 27
267 275 263 211 242 212 192 182 166 149 144 118 90 59 39 47 32 43 30 40 32 46 14 50 54 nan 50 nan nan nan nan nan nan nan 7 349 9 15 19 28 25 35 32
252 245 nan 246 233 215 190 185 177 156 147 129 116 29 14 42 38 28 43 30 46 33 31 41 53 51 nan nan nan nan nan nan nan nan 346 2 10 11 7 16 18 24 33
261 261 234 239 234 212 200 184 178 165 160 150 145 135 31 35 49 40 37 32 28 34 42 43 36 43 nan nan nan nan nan nan nan nan nan 33 41 25 22 19 24 27 32
270 282 257 238 244 224 219 197 178 173 180 190 161 152 106 47 42 26 38 34 36 34 35 25 24 37 nan nan nan nan nan nan nan nan nan nan nan nan 52 28 27 27 31
263 262 262 248 245 236 226 201 175 167 174 172 174 183 160 44 45 33 21 28 25 32 34 29 20 26 nan nan nan 43 nan 29 nan nan nan nan nan nan nan nan 33 38 30
285 280 271 257 249 248 240 216 204 193 205 195 200 212 118 85 24 28 8 12 25 13 10 18 2 3 6 nan nan nan nan nan nan nan nan nan nan nan nan nan nan 53 nan
278 285 282 282 263 259 254 237 239 218 222 212 206 214 196 191 324 13 358 355 12 359 358 354 354 350 350 346 58 nan nan nan nan nan nan nan nan nan nan nan nan nan nan